Flag for Austria Weather past 2 weeks in Melk, Lower Austria, Austria

Now
94 °F

Extremely hot.


Feels Like: 91 °F
Forecast: 54 / 71 °F
Wind: 3 mph from Northeast

Location: Amstetten

Current Time: Sep 1, 2015 at 6:12:45 PM

Latest Report: Sep 1, 2015 at 5:00 PM


Visibility: N/A

Pressure: 29.65 "Hg

Humidity: 25%

Dew point: 53 °F

Location of MelkLocation

Historic Weather in Melk — Graph

°F

Melk temperature yesterday

Maximum temperature yesterday: 94 °F (at 4:00 PM)
Minimum temperature yesterday: 57 °F (at 7:00 AM)
Average temperature yesterday: 75 °F

Past Weeks' High & Low Weather Summary

 TemperatureHumidityPressure
High95 °F (Aug 30, 5:00 PM)100% (Aug 22, 6:00 AM)30.26 "Hg (Aug 22, 6:00 AM)
Low47 °F (Aug 26, 6:00 AM)22% (Sep 1, 3:00 PM)29.67 "Hg (Sep 1, 4:00 PM)
Average69 °F67%30.02 "Hg
* Reported Aug 17 4:00 PM — Sep 1 4:00 PM, Melk, Weather by CustomWeather, © 2015

Note: Actual official high and low records may vary slightly from our data, if they occured in-between our weather recording intervals... More about our weather records

Advertising

Melk weather history for previous 24 hours

 ConditionsComfort  
Time TempWeatherWind HumidityBarometerVisibility
4:00 PM
Tue, Sep 1
94 °FExtremely hot.5 mph23%29.67 "HgN/A
3:00 PM94 °FExtremely hot.3 mph22%29.69 "HgN/A
2:00 PM92 °FHot.2 mph24%29.71 "HgN/A
1:00 PM90 °FHot.1 mph28%29.74 "HgN/A
12:00 PM88 °FPassing clouds.16 mph34%29.77 "Hg2 mi
11:00 AM84 °FWarm.1 mph40%29.80 "HgN/A
10:00 AM79 °FWarm.No wind52%29.82 "HgN/A
9:00 AM72 °FMild.1 mph66%29.83 "HgN/A
8:00 AM65 °FPassing clouds.1 mph77%29.86 "HgN/A
7:00 AM60 °FCool.1 mph89%29.88 "HgN/A
6:00 AM63 °FMild.1 mph81%29.88 "HgN/A
4:00 AM65 °FMild.1 mph79%29.86 "HgN/A
3:00 AM67 °FMild.1 mph73%29.86 "HgN/A
2:00 AM66 °FMild.1 mph77%29.87 "HgN/A
1:00 AM65 °FMild.No wind78%29.87 "HgN/A
12:00 AM66 °FMild.1 mph77%29.86 "HgN/A
10:00 PM
Mon, Aug 31
72 °FMild.No wind63%29.84 "HgN/A
9:00 PM74 °FMild.No wind60%29.83 "HgN/A
8:00 PM82 °FWarm.No wind50%29.80 "HgN/A
7:00 PM90 °FHot.2 mph30%29.79 "HgN/A
6:00 PM94 °FExtremely hot.2 mph23%29.80 "HgN/A
Weather by CustomWeather, © 2015

See weather overviewHow to use our weather pages